Terminal Aerodrome Forecast
Issued by NWS

Home | Current Version | Previous Version | Graphics & Text | Print | Product List | Glossary On
Versions: 1 2 3 4 5 6 7 8 9 10 11 12 13 14 15 16 17 18 19 20 21 22 23 24
000
FTUS43 KTOP 151900 AAA
TAFMHK
TAF AMD
KMHK 151913Z 1519/1618 01009KT P6SM OVC025
     FM152000 02011KT P6SM SCT040
     FM160100 04002KT P6SM SKC=

USA.gov is the U.S. government's official web portal to all federal, state and local government web resources and services.